This is the latest recevied weather packets stored in our database for station/object K4KJQ-13. If no packets are shown the sender has not sent any weather packets the latest 1 day(s).
| Time | Temp. | Humidity | Pressure | Rain* | Wind** | Luminosity | Snow |
|---|---|---|---|---|---|---|---|
| 1778024171 | 19.44° C | 100% | 0 hPa | 0 mm | 2.68 m/s, 293° | - | - |
| 1778023871 | 18.89° C | 100% | 0 hPa | 0 mm | 3.13 m/s, 293° | - | - |
| 1778023571 | 19.44° C | 100% | 0 hPa | 0 mm | 4.02 m/s, 288° | - | - |
| 1778023271 | 20° C | 100% | 0 hPa | 0 mm | 2.24 m/s, 279° | - | - |
| 1778022971 | 20° C | 100% | 0 hPa | 0 mm | 3.13 m/s, 278° | - | - |
| 1778022671 | 19.44° C | 100% | 0 hPa | 0 mm | 1.34 m/s, 299° | - | - |
| 1778022371 | 20° C | 100% | 0 hPa | 0 mm | 2.68 m/s, 293° | - | - |
| 1778022071 | 20° C | 100% | 0 hPa | 0 mm | 3.13 m/s, 285° | - | - |
| 1778021771 | 19.44° C | 100% | 0 hPa | 0 mm | 2.24 m/s, 284° | - | - |
| 1778021471 | 20° C | 100% | 0 hPa | 0 mm | 3.13 m/s, 271° | - | - |
| 1778021171 | 20° C | 100% | 0 hPa | 0 mm | 3.13 m/s, 295° | - | - |
| 1778020871 | 19.44° C | 100% | 0 hPa | 0 mm | 3.13 m/s, 296° | - | - |
| 1778020571 | 19.44° C | 100% | 0 hPa | 0 mm | 2.68 m/s, 274° | - | - |
| 1778020271 | 19.44° C | 100% | 0 hPa | 0 mm | 1.34 m/s, 185° | - | - |
| 1778019971 | 19.44° C | 100% | 0 hPa | 0 mm | 1.34 m/s, 303° | - | - |
| 1778019671 | 20° C | 100% | 0 hPa | 0 mm | 0.89 m/s, 288° | - | - |
| 1778019371 | 20° C | 100% | 0 hPa | 0 mm | 1.34 m/s, 278° | - | - |
| 1778019071 | 20° C | 100% | 0 hPa | 0 mm | 2.24 m/s, 277° | - | - |
| 1778018771 | 20° C | 100% | 0 hPa | 0 mm | 1.79 m/s, 261° | - | - |
| 1778018471 | 20° C | 100% | 0 hPa | 0 mm | 3.13 m/s, 288° | - | - |
| 1778018171 | 20° C | 100% | 0 hPa | 0 mm | 3.13 m/s, 254° | - | - |
| 1778017871 | 20° C | 100% | 0 hPa | 0 mm | 2.24 m/s, 288° | - | - |
| 1778017571 | 20° C | 100% | 0 hPa | 0 mm | 1.34 m/s, 289° | - | - |
| 1778017271 | 19.44° C | 100% | 0 hPa | 0 mm | 0.45 m/s, 295° | - | - |
| 1778016971 | 19.44° C | 100% | 0 hPa | 0 mm | 1.79 m/s, 289° | - | - |
* Rain latest hour (hover to see other rain measurements)
** Current wind speed in m/s (hover to see current wind gust speed)